Location: Bacharowice
(49.9333°N, 19.5833°E)
Time: 05:46:30
(UTC+00:00)

Cosmos 1908 Rocket - Pass Details

Date: 26 September 2021
Orbit: 605 x 633 km, 82.5° (Epoch: 17 October)

Event Time Altitude Azimuth Distance (km) Brightness Sun altitude
Rises 02:43:49 0° 5° (N) 2,913 7.4 -18.2°
Reaches altitude 10° 02:47:32 10° 37° (NE) 1,992 7.0 -17.7°
Maximum altitude 02:49:12 12° 60° (ENE) 1,861 7.2 -17.4°
Drops below altitude 10° 02:50:53 10° 82° (E) 1,980 7.4 -17.1°
Sets 02:54:32 0° 115° (ESE) 2,872 7.7 -16.6°
